WB4FAY-4 Weather Reports


time (UTC)temp
C
wind
direction
speed
KPH
gust
KPH
rain 1hr
cm
rain 24hr
cm
rain mn
cm
humidity
%
barometer
mb
20260503203018 22 145 3.2 6.4 0.00 0.00 0.00 36 1019.8
20260503202517 21 302 6.4 14.5 0.00 0.00 0.00 36 1020.0
20260503202017 21 7 8.0 14.5 0.00 0.00 0.00 37 1020.0
20260503201517 21 350 6.4 17.7 0.00 0.00 0.00 37 1020.1
20260503201018 21 8 4.8 12.9 0.00 0.00 0.00 37 1020.2
20260503200517 21 319 4.8 12.9 0.00 0.00 0.00 38 1020.3
20260503200017 21 58 8.0 16.1 0.00 0.00 0.00 39 1020.3
20260503195517 21 357 8.0 14.5 0.00 0.00 0.00 39 1020.4
20260503195017 21 6 6.4 16.1 0.00 0.00 0.00 39 1020.5
20260503194517 21 8 3.2 9.7 0.00 0.00 0.00 39 1020.6
20260503194017 21 295 1.6 8.0 0.00 0.00 0.00 39 1020.8
20260503193517 21 346 0.0 8.0 0.00 0.00 0.00 40 1020.9
20260503193017 21 360 3.2 11.3 0.00 0.00 0.00 41 1021.0
20260503192517 21 89 3.2 12.9 0.00 0.00 0.00 41 1020.9
20260503192017 20 343 11.3 12.9 0.00 0.00 0.00 40 1021.0
20260503191517 20 298 3.2 9.7 0.00 0.00 0.00 41 1021.1
20260503191017 20 85 3.2 8.0 0.00 0.00 0.00 42 1021.3
20260503190517 20 4 4.8 9.7 0.00 0.00 0.00 41 1021.3
20260503190018 20 109 4.8 8.0 0.00 0.00 0.00 41 1021.5
20260503185517 20 356 4.8 16.1 0.00 0.00 0.00 40 1021.5
20260503185017 20 3 12.9 14.5 0.00 0.00 0.00 39 1021.8
20260503184517 20 352 4.8 19.3 0.00 0.00 0.00 39 1021.8
20260503184017 20 360 6.4 14.5 0.00 0.00 0.00 38 1021.9
20260503183518 20 301 12.9 11.3 0.00 0.00 0.00 38 1021.9
20260503183017 20 42 3.2 20.9 0.00 0.00 0.00 39 1022.0
20260503182517 20 3 6.4 16.1 0.00 0.00 0.00 38 1022.1
20260503182017 20 335 3.2 12.9 0.00 0.00 0.00 40 1022.2
20260503181517 20 92 3.2 17.7 0.00 0.00 0.00 38 1022.1
20260503181018 20 328 4.8 17.7 0.00 0.00 0.00 40 1022.2
20260503180517 20 340 14.5 17.7 0.00 0.00 0.00 41 1022.3
20260503180017 19 75 3.2 8.0 0.00 0.00 0.00 42 1022.3
20260503175517 19 319 3.2 14.5 0.00 0.00 0.00 41 1022.4
20260503175017 20 160 9.7 9.7 0.00 0.00 0.00 40 1022.4
20260503174517 19 25 3.2 11.3 0.00 0.00 0.00 39 1022.5
20260503174017 20 353 6.4 14.5 0.00 0.00 0.00 41 1022.5
20260503173518 19 24 1.6 12.9 0.00 0.00 0.00 41 1022.5
20260503173017 19 359 3.2 14.5 0.00 0.00 0.00 40 1022.5
20260503172517 19 212 9.7 12.9 0.00 0.00 0.00 42 1022.6
20260503172017 18 347 8.0 12.9 0.00 0.00 0.00 41 1022.6
20260503171517 18 48 3.2 6.4 0.00 0.00 0.00 42 1022.7
20260503171017 18 295 4.8 11.3 0.00 0.00 0.00 43 1022.8
20260503170518 18 309 3.2 11.3 0.00 0.00 0.00 40 1022.9
20260503150517 16 17 3.2 9.7 0.00 0.00 0.00 59 1023.3
20260503131017 11 56 0.0 9.7 0.00 0.00 0.00 83 1022.9
20260503130517 11 134 0.0 9.7 0.00 0.00 0.00 85 1023.0
20260503110517 8 0 0.0 0.0 0.00 0.00 0.00 90 1021.7
20260503081517 11 0 0.0 0.0 0.00 0.00 0.00 73 1020.5
20260503081018 11 0 0.0 0.0 0.00 0.00 0.00 72 1020.5
20260503080522 12 0 0.0 0.0 0.00 0.00 0.00 71 1020.5
20260503072518 12 0 0.0 0.0 0.00 0.00 0.00 67 1020.2
20260503072017 12 0 0.0 0.0 0.00 0.00 0.00 66 1020.2
20260503071517 12 134 0.0 4.8 0.00 0.00 0.00 66 1020.1
20260503071017 12 158 0.0 3.2 0.00 0.00 0.00 66 1020.1
20260503070517 13 72 0.0 6.4 0.00 0.00 0.00 65 1020.1
20260503055017 14 32 9.7 11.3 0.00 0.00 0.00 62 1019.9
20260503054517 14 329 1.6 16.1 0.00 0.00 0.00 61 1019.9
20260503054017 14 315 1.6 11.3 0.00 0.00 0.00 61 1019.8
20260503053518 14 72 3.2 9.7 0.00 0.00 0.00 62 1019.8
20260503053017 13 332 0.0 17.7 0.00 0.00 0.00 62 1019.8
20260503052517 13 18 0.0 16.1 0.00 0.00 0.00 65 1019.7
20260503052017 12 347 4.8 20.9 0.00 0.00 0.00 67 1019.7
20260503051517 12 35 6.4 11.3 0.00 0.00 0.00 72 1019.6
20260503051018 12 0 0.0 0.0 0.00 0.00 0.00 73 1019.5
20260503050518 12 0 0.0 0.0 0.00 0.00 0.00 72 1019.3
20260503050017 12 0 0.0 0.0 0.00 0.00 0.00 72 1019.3
20260503045518 12 0 0.0 0.0 0.00 0.00 0.00 72 1019.2
20260503045017 12 0 0.0 0.0 0.00 0.00 0.00 72 1019.1
20260503044517 12 0 0.0 0.0 0.00 0.00 0.00 72 1019.1
20260503044017 12 0 0.0 0.0 0.00 0.00 0.00 72 1019.0
20260503043517 12 0 0.0 0.0 0.00 0.00 0.00 71 1019.0
20260503043017 12 0 0.0 0.0 0.00 0.00 0.00 71 1019.0
20260503042517 12 0 0.0 0.0 0.00 0.00 0.00 71 1019.0
20260503042017 12 0 0.0 0.0 0.00 0.00 0.00 71 1019.0
20260503041517 12 0 0.0 0.0 0.00 0.00 0.00 71 1019.0
20260503041018 12 0 0.0 0.0 0.00 0.00 0.00 71 1019.0
20260503040517 12 0 0.0 0.0 0.00 0.00 0.00 71 1018.8
20260503040017 12 0 0.0 0.0 0.00 0.00 0.00 71 1018.8
20260503035517 12 0 0.0 0.0 0.00 0.00 0.00 71 1018.8
20260503035017 12 0 0.0 0.0 0.00 0.00 0.00 70 1018.8
20260503034517 12 0 0.0 0.0 0.00 0.00 0.00 70 1018.7
20260503034017 12 0 0.0 0.0 0.00 0.00 0.00 70 1018.7
20260503033517 12 0 0.0 0.0 0.00 0.00 0.00 69 1018.7
20260503033018 12 0 0.0 0.0 0.00 0.00 0.00 69 1018.7
20260503032517 13 0 0.0 0.0 0.00 0.00 0.00 70 1018.7
20260503032017 13 0 0.0 0.0 0.00 0.00 0.00 69 1018.7
20260503031518 13 0 0.0 0.0 0.00 0.00 0.00 69 1018.7
20260503031017 13 0 0.0 0.0 0.00 0.00 0.00 69 1018.6
20260503030517 13 0 0.0 0.0 0.00 0.00 0.00 68 1018.6
20260503030017 13 0 0.0 0.0 0.00 0.00 0.00 67 1018.6
20260503025517 13 0 0.0 0.0 0.00 0.00 0.00 67 1018.6
20260503025017 13 0 0.0 0.0 0.00 0.00 0.00 67 1018.5
20260503024517 13 0 0.0 0.0 0.00 0.00 0.00 66 1018.5
20260503024017 13 0 0.0 0.0 0.00 0.00 0.00 66 1018.5
20260503023518 13 0 0.0 0.0 0.00 0.00 0.00 66 1018.4
20260503023017 13 0 0.0 0.0 0.00 0.00 0.00 66 1018.4
20260503022517 13 0 0.0 0.0 0.00 0.00 0.00 65 1018.3
20260503022017 13 0 0.0 0.0 0.00 0.00 0.00 65 1018.3
20260503021517 13 0 0.0 0.0 0.00 0.00 0.00 64 1018.2
20260503021017 14 0 0.0 0.0 0.00 0.00 0.00 64 1018.2
20260503020518 14 0 0.0 0.0 0.00 0.00 0.00 63 1018.1
20260503020018 14 0 0.0 0.0 0.00 0.00 0.00 62 1018.1
20260503015517 14 0 0.0 0.0 0.00 0.00 0.00 61 1018.0
20260503015017 15 0 0.0 0.0 0.00 0.00 0.00 60 1018.0
20260503014518 15 0 0.0 0.0 0.00 0.00 0.00 60 1017.8
20260503014017 15 0 0.0 0.0 0.00 0.00 0.00 59 1017.8
20260503013517 15 0 0.0 0.0 0.00 0.00 0.00 58 1017.7
20260503013017 15 0 0.0 0.0 0.00 0.00 0.00 57 1017.6
20260503012518 15 0 0.0 0.0 0.00 0.00 0.00 56 1017.5
20260503012017 16 0 0.0 0.0 0.00 0.00 0.00 55 1017.4
20260503011517 16 0 0.0 0.0 0.00 0.00 0.00 53 1017.4
20260503011018 16 0 0.0 0.0 0.00 0.00 0.00 53 1017.3
20260503010517 16 0 0.0 0.0 0.00 0.00 0.00 53 1017.3
20260503010018 16 0 0.0 0.0 0.00 0.00 0.00 51 1017.2
20260503005517 17 0 0.0 0.0 0.00 0.00 0.00 50 1017.2
20260503005017 17 0 0.0 0.0 0.00 0.00 0.00 51 1017.1
20260503004517 17 0 0.0 0.0 0.00 0.00 0.00 47 1017.1
20260503004017 17 0 0.0 0.0 0.00 0.00 0.00 44 1017.0
20260503003517 17 0 0.0 0.0 0.00 0.00 0.00 44 1016.9
20260503003017 18 0 0.0 0.0 0.00 0.00 0.00 44 1016.9
20260503002517 18 319 0.0 4.8 0.00 0.00 0.00 42 1016.8
20260503002017 18 344 0.0 8.0 0.00 0.00 0.00 42 1016.8
20260503001517 18 357 1.6 6.4 0.00 0.00 0.00 42 1016.6
20260503001018 18 25 0.0 9.7 0.00 0.00 0.00 40 1016.5
20260503000517 18 21 4.8 6.4 0.00 0.00 0.00 41 1016.5
20260503000017 19 356 0.0 4.8 0.00 0.00 0.00 40 1016.4
20260502235517 19 23 1.6 9.7 0.00 0.00 0.00 38 1016.3
20260502235017 19 13 4.8 9.7 0.00 0.00 0.00 39 1016.3
20260502234518 19 10 0.0 4.8 0.00 0.00 0.00 39 1016.2
20260502234018 19 62 1.6 9.7 0.00 0.00 0.00 38 1016.1
20260502233517 19 356 0.0 11.3 0.00 0.00 0.00 38 1016.1
20260502233017 19 360 8.0 14.5 0.00 0.00 0.00 36 1016.2
20260502232517 19 299 6.4 11.3 0.00 0.00 0.00 37 1016.1
20260502232017 19 349 3.2 12.9 0.00 0.00 0.00 38 1016.1
20260502231517 20 274 0.0 6.4 0.00 0.00 0.00 38 1016.1
20260502231017 20 34 0.0 8.0 0.00 0.00 0.00 39 1016.1
20260502230517 20 344 0.0 6.4 0.00 0.00 0.00 39 1016.1
20260502230017 20 18 6.4 17.7 0.00 0.00 0.00 37 1016.1
20260502225517 20 38 4.8 12.9 0.00 0.00 0.00 37 1016.0
20260502225017 20 20 1.6 16.1 0.00 0.00 0.00 37 1016.0
20260502224517 20 18 1.6 19.3 0.00 0.00 0.00 36 1016.0
20260502224017 21 11 6.4 19.3 0.00 0.00 0.00 36 1016.0
20260502223517 21 8 4.8 17.7 0.00 0.00 0.00 35 1016.0
20260502223017 21 18 3.2 12.9 0.00 0.00 0.00 35 1016.0
20260502222517 21 41 3.2 9.7 0.00 0.00 0.00 37 1016.0
20260502222017 20 35 4.8 8.0 0.00 0.00 0.00 37 1016.1
20260502221517 20 32 1.6 12.9 0.00 0.00 0.00 37 1016.1
20260502221017 20 350 6.4 19.3 0.00 0.00 0.00 36 1016.1
20260502220517 21 322 9.7 11.3 0.00 0.00 0.00 36 1016.0
20260502220017 21 31 8.0 9.7 0.00 0.00 0.00 36 1016.0
20260502215517 21 11 4.8 17.7 0.00 0.00 0.00 35 1015.9
20260502215017 21 6 9.7 17.7 0.00 0.00 0.00 35 1015.9
20260502214517 21 17 11.3 29.0 0.00 0.00 0.00 35 1015.9
20260502214017 21 11 6.4 24.1 0.00 0.00 0.00 34 1016.0
20260502213517 21 13 6.4 20.9 0.00 0.00 0.00 36 1015.9
20260502213017 21 14 9.7 20.9 0.00 0.00 0.00 37 1015.9
20260502212517 21 360 3.2 19.3 0.00 0.00 0.00 34 1015.9
20260502212017 21 353 6.4 17.7 0.00 0.00 0.00 35 1015.9
20260502211517 21 14 0.0 14.5 0.00 0.00 0.00 34 1015.9
20260502211017 21 20 4.8 19.3 0.00 0.00 0.00 35 1016.0
20260502210517 21 342 0.0 16.1 0.00 0.00 0.00 35 1015.9
20260502210017 21 315 6.4 20.9 0.00 0.00 0.00 34 1016.0
20260502205517 21 289 3.2 12.9 0.00 0.00 0.00 36 1016.0
20260502205017 21 6 1.6 17.7 0.00 0.00 0.00 34 1016.0
20260502204517 21 346 3.2 24.1 0.00 0.00 0.00 36 1016.1
20260502204017 21 24 6.4 20.9 0.00 0.00 0.00 34 1016.1
20260502203517 21 8 6.4 16.1 0.00 0.00 0.00 35 1016.1